"Sample Date","Sample Time","Sensor Name","Sample Value","Units","Flow Rate","Sample Interval","Sample Volume","Laser Status","Number Channels","Micron Size 0","Counts/Channel 0","Micron Size 1","Counts/Channel 1","Micron Size 2","Counts/Channel 2","Micron Size 3","Counts/Channel 3","Micron Size 4","Counts/Channel 4","Micron Size 5","Counts/Channel 5","Micron Size 6","Counts/Channel 6","Micron Size 7","Counts/Channel 7","Micron Size 8","Counts/Channel 8","Micron Size 9","Counts/Channel 9","Micron Size 10","Counts/Channel 10","Micron Size 11","Counts/Channel 11","Micron Size 12","Counts/Channel 12","Micron Size 13","Counts/Channel 13","Micron Size 14","Counts/Channel 14","Micron Size 15","Counts/Channel 15","Micron Size 16","Counts/Channel 16","Micron Size 17","Counts/Channel 17","Micron Size 18","Counts/Channel 18","Micron Size 19","Counts/Channel 19","Micron Size 20","Counts/Channel 20","Micron Size 21","Counts/Channel 21","Micron Size 22","Counts/Channel 22","Micron Size 23","Counts/Channel 23","Micron Size 24","Counts/Channel 24","Micron Size 25","Counts/Channel 25","Micron Size 26","Counts/Channel 26","Micron Size 27","Counts/Channel 27","Micron Size 28","Counts/Channel 28","Micron Size 29","Counts/Channel 29","Micron Size 30","Counts/Channel 30","Micron Size 31","Counts/Channel 31"
"07/09/06","02:00:00","AMMA06",26472.000,"cc",28318.623,6.00,2831.863,1,6,0.100,16305.000,0.200,8751.000,0.300,1096.000,0.500,204.000,1.000,116.000,5.000,0
"07/09/06","02:00:06","AMMA06",26836.000,"cc",28317.650,6.00,2831.765,1,6,0.100,16409.000,0.200,8830.000,0.300,1216.000,0.500,244.000,1.000,137.000,5.000,0
"07/09/06","02:00:12","AMMA06",26976.000,"cc",28311.141,6.00,2831.114,1,6,0.100,16632.000,0.200,8926.000,0.300,1090.000,0.500,223.000,1.000,105.000,5.000,0
"07/09/06","02:00:18","AMMA06",27202.000,"cc",28330.055,6.00,2833.006,1,6,0.100,16721.000,0.200,8919.000,0.300,1177.000,0.500,238.000,1.000,147.000,5.000,0
"07/09/06","02:00:24","AMMA06",26974.000,"cc",28343.324,6.00,2834.333,1,6,0.100,16555.000,0.200,8878.000,0.300,1150.000,0.500,258.000,1.000,133.000,5.000,0
"07/09/06","02:00:30","AMMA06",26770.000,"cc",28264.570,6.00,2826.457,1,6,0.100,16465.000,0.200,8918.000,0.300,1102.000,0.500,183.000,1.000,102.000,5.000,0
"07/09/06","02:00:36","AMMA06",26908.000,"cc",28340.697,6.00,2834.070,1,6,0.100,16609.000,0.200,8938.000,0.300,1041.000,0.500,211.000,1.000,109.000,5.000,0
"07/09/06","02:00:42","AMMA06",27316.000,"cc",28281.332,6.00,2828.133,1,6,0.100,16539.000,0.200,9113.000,0.300,1275.000,0.500,262.000,1.000,127.000,5.000,0
"07/09/06","02:00:48","AMMA06",27065.000,"cc",28296.166,6.00,2829.617,1,6,0.100,16424.000,0.200,9012.000,0.300,1242.000,0.500,256.000,1.000,131.000,5.000,0
"07/09/06","02:00:54","AMMA06",26991.000,"cc",28313.367,6.00,2831.337,1,6,0.100,16496.000,0.200,8977.000,0.300,1185.000,0.500,222.000,1.000,111.000,5.000,0
"07/09/06","02:01:00","AMMA06",27044.000,"cc",28368.543,6.00,2836.855,1,6,0.100,16752.000,0.200,9007.000,0.300,1004.000,0.500,183.000,1.000,98.000,5.000,0
"07/09/06","02:01:06","AMMA06",26593.000,"cc",28364.471,6.00,2836.447,1,6,0.100,16407.000,0.200,8874.000,0.300,1050.000,0.500,159.000,1.000,103.000,5.000,0
"07/09/06","02:01:12","AMMA06",26942.000,"cc",28240.947,6.00,2824.095,1,6,0.100,16332.000,0.200,9100.000,0.300,1185.000,0.500,215.000,1.000,110.000,5.000,0
"07/09/06","02:01:18","AMMA06",27231.000,"cc",28331.830,6.00,2833.183,1,6,0.100,16872.000,0.200,8955.000,0.300,1100.000,0.500,197.000,1.000,107.000,5.000,0
"07/09/06","02:01:24","AMMA06",27032.000,"cc",28310.477,6.00,2831.048,1,6,0.100,16642.000,0.200,8971.000,0.300,1100.000,0.500,205.000,1.000,114.000,5.000,0
"07/09/06","02:01:30","AMMA06",26952.000,"cc",28283.356,6.00,2828.336,1,6,0.100,16530.000,0.200,9031.000,0.300,1099.000,0.500,183.000,1.000,109.000,5.000,0
"07/09/06","02:01:36","AMMA06",26890.000,"cc",28312.008,6.00,2831.201,1,6,0.100,16601.000,0.200,8906.000,0.300,1105.000,0.500,159.000,1.000,119.000,5.000,0
"07/09/06","02:01:42","AMMA06",26899.000,"cc",28363.262,6.00,2836.326,1,6,0.100,16440.000,0.200,9064.000,0.300,1107.000,0.500,198.000,1.000,90.000,5.000,0
"07/09/06","02:01:48","AMMA06",26553.000,"cc",28353.008,6.00,2835.301,1,6,0.100,16216.000,0.200,9014.000,0.300,1090.000,0.500,160.000,1.000,73.000,5.000,0
"07/09/06","02:01:54","AMMA06",26987.000,"cc",28335.035,6.00,2833.504,1,6,0.100,16538.000,0.200,9007.000,0.300,1136.000,0.500,188.000,1.000,118.000,5.000,0
"07/09/06","02:02:00","AMMA06",26766.000,"cc",28246.904,6.00,2824.691,1,6,0.100,16342.000,0.200,8988.000,0.300,1136.000,0.500,193.000,1.000,107.000,5.000,0
"07/09/06","02:02:06","AMMA06",26913.000,"cc",28295.697,6.00,2829.570,1,6,0.100,16532.000,0.200,8988.000,0.300,1128.000,0.500,184.000,1.000,81.000,5.000,0
"07/09/06","02:02:12","AMMA06",27016.000,"cc",28387.787,6.00,2838.779,1,6,0.100,16496.000,0.200,9114.000,0.300,1137.000,0.500,177.000,1.000,92.000,5.000,0
"07/09/06","02:02:18","AMMA06",26520.000,"cc",28299.717,6.00,2829.972,1,6,0.100,16106.000,0.200,9026.000,0.300,1101.000,0.500,197.000,1.000,90.000,5.000,0
"07/09/06","02:02:24","AMMA06",26769.000,"cc",28241.307,6.00,2824.131,1,6,0.100,16260.000,0.200,9118.000,0.300,1088.000,0.500,210.000,1.000,93.000,5.000,0
"07/09/06","02:02:30","AMMA06",26777.000,"cc",28368.318,6.00,2836.832,1,6,0.100,16491.000,0.200,8913.000,0.300,1123.000,0.500,141.000,1.000,109.000,5.000,0
"07/09/06","02:02:36","AMMA06",26781.000,"cc",28330.291,6.00,2833.029,1,6,0.100,16330.000,0.200,8964.000,0.300,1201.000,0.500,183.000,1.000,103.000,5.000,0
"07/09/06","02:02:42","AMMA06",26402.000,"cc",28310.961,6.00,2831.096,1,6,0.100,16280.000,0.200,8830.000,0.300,1011.000,0.500,177.000,1.000,104.000,5.000,0
"07/09/06","02:02:48","AMMA06",26740.000,"cc",28336.287,6.00,2833.629,1,6,0.100,16182.000,0.200,9129.000,0.300,1127.000,0.500,191.000,1.000,111.000,5.000,0
"07/09/06","02:02:54","AMMA06",26792.000,"cc",28323.365,6.00,2832.337,1,6,0.100,16398.000,0.200,9009.000,0.300,1106.000,0.500,182.000,1.000,97.000,5.000,0
"07/09/06","02:03:00","AMMA06",26842.000,"cc",28339.430,6.00,2833.943,1,6,0.100,16209.000,0.200,9170.000,0.300,1176.000,0.500,177.000,1.000,110.000,5.000,0
"07/09/06","02:03:06","AMMA06",26979.000,"cc",28336.783,6.00,2833.679,1,6,0.100,16337.000,0.200,9216.000,0.300,1118.000,0.500,182.000,1.000,126.000,5.000,0
"07/09/06","02:03:12","AMMA06",26835.000,"cc",28334.428,6.00,2833.443,1,6,0.100,16510.000,0.200,8961.000,0.300,1099.000,0.500,174.000,1.000,91.000,5.000,0
"07/09/06","02:03:18","AMMA06",26619.000,"cc",28247.363,6.00,2824.737,1,6,0.100,16137.000,0.200,9088.000,0.300,1102.000,0.500,185.000,1.000,107.000,5.000,0
"07/09/06","02:03:24","AMMA06",26600.000,"cc",28324.066,6.00,2832.407,1,6,0.100,16066.000,0.200,9132.000,0.300,1118.000,0.500,187.000,1.000,97.000,5.000,0
"07/09/06","02:03:30","AMMA06",26935.000,"cc",28325.084,6.00,2832.509,1,6,0.100,16333.000,0.200,9083.000,0.300,1190.000,0.500,201.000,1.000,128.000,5.000,0
"07/09/06","02:03:36","AMMA06",26684.000,"cc",28353.070,6.00,2835.307,1,6,0.100,16065.000,0.200,9180.000,0.300,1165.000,0.500,178.000,1.000,96.000,5.000,0
"07/09/06","02:03:42","AMMA06",27233.000,"cc",28254.311,6.00,2825.431,1,6,0.100,16299.000,0.200,9343.000,0.300,1234.000,0.500,230.000,1.000,127.000,5.000,0
"07/09/06","02:03:48","AMMA06",27070.000,"cc",28340.732,6.00,2834.074,1,6,0.100,16363.000,0.200,9206.000,0.300,1189.000,0.500,194.000,1.000,118.000,5.000,0
"07/09/06","02:03:54","AMMA06",26863.000,"cc",28303.541,6.00,2830.354,1,6,0.100,16233.000,0.200,9183.000,0.300,1163.000,0.500,187.000,1.000,97.000,5.000,0
"07/09/06","02:04:00","AMMA06",27273.000,"cc",28314.141,6.00,2831.414,1,6,0.100,16440.000,0.200,9213.000,0.300,1228.000,0.500,252.000,1.000,140.000,5.000,0
"07/09/06","02:04:06","AMMA06",27464.000,"cc",28380.484,6.00,2838.049,1,6,0.100,16436.000,0.200,9381.000,0.300,1290.000,0.500,227.000,1.000,130.000,5.000,0
"07/09/06","02:04:12","AMMA06",28037.000,"cc",28285.668,6.00,2828.567,1,6,0.100,16638.000,0.200,9404.000,0.300,1464.000,0.500,342.000,1.000,189.000,5.000,0
"07/09/06","02:04:18","AMMA06",27400.000,"cc",28284.131,6.00,2828.413,1,6,0.100,16381.000,0.200,9401.000,0.300,1245.000,0.500,248.000,1.000,125.000,5.000,0
"07/09/06","02:04:24","AMMA06",26870.000,"cc",28304.096,6.00,2830.410,1,6,0.100,16182.000,0.200,9162.000,0.300,1203.000,0.500,210.000,1.000,113.000,5.000,0
"07/09/06","02:04:30","AMMA06",27054.000,"cc",28301.016,6.00,2830.102,1,6,0.100,16334.000,0.200,9210.000,0.300,1178.000,0.500,230.000,1.000,102.000,5.000,0
"07/09/06","02:04:36","AMMA06",27551.000,"cc",28362.449,6.00,2836.245,1,6,0.100,16488.000,0.200,9377.000,0.300,1297.000,0.500,250.000,1.000,139.000,5.000,0
"07/09/06","02:04:42","AMMA06",27144.000,"cc",28332.299,6.00,2833.230,1,6,0.100,16511.000,0.200,9105.000,0.300,1182.000,0.500,223.000,1.000,123.000,5.000,0
"07/09/06","02:04:48","AMMA06",27172.000,"cc",28276.992,6.00,2827.700,1,6,0.100,16393.000,0.200,9262.000,0.300,1167.000,0.500,211.000,1.000,139.000,5.000,0
"07/09/06","02:04:54","AMMA06",28836.000,"cc",28317.940,6.00,2831.794,1,6,0.100,17023.000,0.200,9689.000,0.300,1493.000,0.500,452.000,1.000,179.000,5.000,0
"07/09/06","02:05:00","AMMA06",27677.000,"cc",28310.262,6.00,2831.026,1,6,0.100,16714.000,0.200,9217.000,0.300,1322.000,0.500,284.000,1.000,140.000,5.000,0
"07/09/06","02:05:06","AMMA06",29031.000,"cc",28341.670,6.00,2834.167,1,6,0.100,17210.000,0.200,9614.000,0.300,1571.000,0.500,427.000,1.000,209.000,5.000,0
"07/09/06","02:05:12","AMMA06",28778.000,"cc",28285.592,6.00,2828.559,1,6,0.100,16941.000,0.200,9757.000,0.300,1516.000,0.500,393.000,1.000,171.000,5.000,0
"07/09/06","02:05:18","AMMA06",28942.000,"cc",28380.094,6.00,2838.010,1,6,0.100,17288.000,0.200,9599.000,0.300,1498.000,0.500,383.000,1.000,174.000,5.000,0
"07/09/06","02:05:24","AMMA06",27666.000,"cc",28312.184,6.00,2831.219,1,6,0.100,16561.000,0.200,9329.000,0.300,1344.000,0.500,289.000,1.000,143.000,5.000,0
"07/09/06","02:05:30","AMMA06",27975.000,"cc",28263.777,6.00,2826.378,1,6,0.100,16664.000,0.200,9411.000,0.300,1398.000,0.500,332.000,1.000,170.000,5.000,0
"07/09/06","02:05:36","AMMA06",27132.000,"cc",28360.809,6.00,2836.081,1,6,0.100,16432.000,0.200,9109.000,0.300,1234.000,0.500,244.000,1.000,113.000,5.000,0
"07/09/06","02:05:42","AMMA06",27099.000,"cc",28286.434,6.00,2828.644,1,6,0.100,16360.000,0.200,9258.000,0.300,1159.000,0.500,205.000,1.000,117.000,5.000,0
"07/09/06","02:05:48","AMMA06",27135.000,"cc",28220.164,6.00,2822.017,1,6,0.100,16393.000,0.200,9235.000,0.300,1167.000,0.500,223.000,1.000,117.000,5.000,0
"07/09/06","02:05:54","AMMA06",27430.000,"cc",28347.139,6.00,2834.714,1,6,0.100,16693.000,0.200,9193.000,0.300,1208.000,0.500,225.000,1.000,111.000,5.000,0
"07/09/06","02:06:00","AMMA06",27778.000,"cc",28326.414,6.00,2832.642,1,6,0.100,16695.000,0.200,9337.000,0.300,1287.000,0.500,327.000,1.000,132.000,5.000,0
"07/09/06","02:06:06","AMMA06",26866.000,"cc",28320.697,6.00,2832.070,1,6,0.100,16196.000,0.200,9246.000,0.300,1107.000,0.500,213.000,1.000,104.000,5.000,0
"07/09/06","02:06:12","AMMA06",27600.000,"cc",28334.561,6.00,2833.456,1,6,0.100,16742.000,0.200,9147.000,0.300,1297.000,0.500,268.000,1.000,146.000,5.000,0
"07/09/06","02:06:18","AMMA06",29807.000,"cc",28306.385,6.00,2830.639,1,6,0.100,17253.000,0.200,9920.000,0.300,1806.000,0.500,566.000,1.000,262.000,5.000,0
"07/09/06","02:06:24","AMMA06",28559.000,"cc",28276.684,6.00,2827.669,1,6,0.100,17098.000,0.200,9411.000,0.300,1461.000,0.500,383.000,1.000,206.000,5.000,0
"07/09/06","02:06:30","AMMA06",28675.000,"cc",28314.941,6.00,2831.494,1,6,0.100,17058.000,0.200,9565.000,0.300,1444.000,0.500,408.000,1.000,200.000,5.000,0
"07/09/06","02:06:36","AMMA06",27303.000,"cc",28298.356,6.00,2829.836,1,6,0.100,16450.000,0.200,9394.000,0.300,1134.000,0.500,212.000,1.000,113.000,5.000,0
"07/09/06","02:06:42","AMMA06",29258.000,"cc",28392.516,6.00,2839.252,1,6,0.100,17317.000,0.200,9785.000,0.300,1538.000,0.500,421.000,1.000,197.000,5.000,0
"07/09/06","02:06:48","AMMA06",29255.000,"cc",28339.918,6.00,2833.992,1,6,0.100,17421.000,0.200,9670.000,0.300,1560.000,0.500,422.000,1.000,182.000,5.000,0
"07/09/06","02:06:54","AMMA06",29419.000,"cc",28357.369,6.00,2835.737,1,6,0.100,17283.000,0.200,9922.000,0.300,1592.000,0.500,433.000,1.000,189.000,5.000,0
"07/09/06","02:07:00","AMMA06",31678.000,"cc",28256.195,6.00,2825.620,1,6,0.100,18197.000,0.200,10308.000,0.300,2140.000,0.500,707.000,1.000,326.000,5.000,0
"07/09/06","02:07:06","AMMA06",29894.000,"cc",28298.385,6.00,2829.839,1,6,0.100,17595.000,0.200,9964.000,0.300,1600.000,0.500,519.000,1.000,216.000,5.000,0
"07/09/06","02:07:12","AMMA06",28272.000,"cc",28298.416,6.00,2829.842,1,6,0.100,17120.000,0.200,9343.000,0.300,1357.000,0.500,316.000,1.000,136.000,5.000,0
"07/09/06","02:07:18","AMMA06",27731.000,"cc",28341.334,6.00,2834.134,1,6,0.100,16710.000,0.200,9485.000,0.300,1169.000,0.500,236.000,1.000,131.000,5.000,0
"07/09/06","02:07:24","AMMA06",27603.000,"cc",28347.445,6.00,2834.745,1,6,0.100,16568.000,0.200,9451.000,0.300,1236.000,0.500,221.000,1.000,127.000,5.000,0
"07/09/06","02:07:30","AMMA06",27160.000,"cc",28349.590,6.00,2834.959,1,6,0.100,16480.000,0.200,9252.000,0.300,1113.000,0.500,199.000,1.000,116.000,5.000,0
"07/09/06","02:07:36","AMMA06",28014.000,"cc",28283.758,6.00,2828.376,1,6,0.100,16657.000,0.200,9547.000,0.300,1390.000,0.500,286.000,1.000,134.000,5.000,0
"07/09/06","02:07:42","AMMA06",28073.000,"cc",28352.910,6.00,2835.291,1,6,0.100,16915.000,0.200,9427.000,0.300,1295.000,0.500,291.000,1.000,145.000,5.000,0
"07/09/06","02:07:48","AMMA06",27438.000,"cc",28335.258,6.00,2833.526,1,6,0.100,16647.000,0.200,9368.000,0.300,1133.000,0.500,188.000,1.000,102.000,5.000,0
"07/09/06","02:07:54","AMMA06",27421.000,"cc",28269.369,6.00,2826.937,1,6,0.100,16607.000,0.200,9302.000,0.300,1155.000,0.500,242.000,1.000,115.000,5.000,0
"07/09/06","02:08:00","AMMA06",27834.000,"cc",28320.150,6.00,2832.015,1,6,0.100,16835.000,0.200,9425.000,0.300,1245.000,0.500,214.000,1.000,115.000,5.000,0
"07/09/06","02:08:06","AMMA06",27523.000,"cc",28270.602,6.00,2827.060,1,6,0.100,16730.000,0.200,9235.000,0.300,1218.000,0.500,225.000,1.000,115.000,5.000,0
"07/09/06","02:08:12","AMMA06",27296.000,"cc",28302.279,6.00,2830.228,1,6,0.100,16557.000,0.200,9217.000,0.300,1190.000,0.500,211.000,1.000,121.000,5.000,0
"07/09/06","02:08:18","AMMA06",26949.000,"cc",28334.408,6.00,2833.441,1,6,0.100,16349.000,0.200,9177.000,0.300,1109.000,0.500,195.000,1.000,119.000,5.000,0
"07/09/06","02:08:24","AMMA06",27058.000,"cc",28310.316,6.00,2831.032,1,6,0.100,16440.000,0.200,9246.000,0.300,1064.000,0.500,197.000,1.000,111.000,5.000,0
"07/09/06","02:08:30","AMMA06",27082.000,"cc",28319.900,6.00,2831.990,1,6,0.100,16367.000,0.200,9324.000,0.300,1121.000,0.500,167.000,1.000,103.000,5.000,0
"07/09/06","02:08:36","AMMA06",26772.000,"cc",28353.121,6.00,2835.312,1,6,0.100,16244.000,0.200,9151.000,0.300,1112.000,0.500,167.000,1.000,98.000,5.000,0
"07/09/06","02:08:42","AMMA06",27297.000,"cc",28363.555,6.00,2836.356,1,6,0.100,16569.000,0.200,9253.000,0.300,1181.000,0.500,206.000,1.000,88.000,5.000,0
"07/09/06","02:08:48","AMMA06",27517.000,"cc",28307.758,6.00,2830.776,1,6,0.100,16492.000,0.200,9330.000,0.300,1316.000,0.500,239.000,1.000,140.000,5.000,0
"07/09/06","02:08:54","AMMA06",27017.000,"cc",28320.147,6.00,2832.015,1,6,0.100,16385.000,0.200,9152.000,0.300,1159.000,0.500,202.000,1.000,119.000,5.000,0
"07/09/06","02:09:00","AMMA06",27169.000,"cc",28236.494,6.00,2823.650,1,6,0.100,16332.000,0.200,9228.000,0.300,1220.000,0.500,242.000,1.000,147.000,5.000,0
"07/09/06","02:09:06","AMMA06",26904.000,"cc",28337.904,6.00,2833.791,1,6,0.100,16370.000,0.200,9070.000,0.300,1155.000,0.500,201.000,1.000,108.000,5.000,0
"07/09/06","02:09:12","AMMA06",27223.000,"cc",28332.285,6.00,2833.229,1,6,0.100,16548.000,0.200,9244.000,0.300,1119.000,0.500,216.000,1.000,96.000,5.000,0
"07/09/06","02:09:18","AMMA06",27172.000,"cc",28303.475,6.00,2830.348,1,6,0.100,16444.000,0.200,9176.000,0.300,1195.000,0.500,224.000,1.000,133.000,5.000,0
"07/09/06","02:09:24","AMMA06",27558.000,"cc",28321.852,6.00,2832.185,1,6,0.100,16666.000,0.200,9364.000,0.300,1172.000,0.500,223.000,1.000,133.000,5.000,0
"07/09/06","02:09:30","AMMA06",27037.000,"cc",28378.125,6.00,2837.813,1,6,0.100,16419.000,0.200,9138.000,0.300,1147.000,0.500,211.000,1.000,122.000,5.000,0
"07/09/06","02:09:36","AMMA06",27083.000,"cc",28317.549,6.00,2831.755,1,6,0.100,16378.000,0.200,9214.000,0.300,1186.000,0.500,195.000,1.000,110.000,5.000,0
"07/09/06","02:09:42","AMMA06",27175.000,"cc",28280.221,6.00,2828.022,1,6,0.100,16557.000,0.200,9157.000,0.300,1131.000,0.500,219.000,1.000,111.000,5.000,0
"07/09/06","02:09:48","AMMA06",27447.000,"cc",28330.643,6.00,2833.065,1,6,0.100,16843.000,0.200,9140.000,0.300,1131.000,0.500,222.000,1.000,111.000,5.000,0
"07/09/06","02:09:54","AMMA06",27278.000,"cc",28320.492,6.00,2832.049,1,6,0.100,16615.000,0.200,9124.000,0.300,1181.000,0.500,236.000,1.000,122.000,5.000,0
"07/09/06","02:10:00","AMMA06",28297.000,"cc",28281.406,6.00,2828.141,1,6,0.100,16900.000,0.200,9439.000,0.300,1411.000,0.500,353.000,1.000,194.000,5.000,0
"07/09/06","02:10:06","AMMA06",27618.000,"cc",28312.684,6.00,2831.269,1,6,0.100,16572.000,0.200,9383.000,0.300,1282.000,0.500,245.000,1.000,136.000,5.000,0
"07/09/06","02:10:12","AMMA06",27339.000,"cc",28277.158,6.00,2827.716,1,6,0.100,16638.000,0.200,9162.000,0.300,1220.000,0.500,202.000,1.000,117.000,5.000,0
"07/09/06","02:10:18","AMMA06",27514.000,"cc",28335.711,6.00,2833.571,1,6,0.100,16477.000,0.200,9510.000,0.300,1184.000,0.500,219.000,1.000,124.000,5.000,0
"07/09/06","02:10:24","AMMA06",27651.000,"cc",28340.971,6.00,2834.097,1,6,0.100,16601.000,0.200,9478.000,0.300,1217.000,0.500,232.000,1.000,123.000,5.000,0
"07/09/06","02:10:30","AMMA06",27860.000,"cc",28323.994,6.00,2832.400,1,6,0.100,16672.000,0.200,9448.000,0.300,1315.000,0.500,288.000,1.000,137.000,5.000,0
"07/09/06","02:10:36","AMMA06",27899.000,"cc",28290.830,6.00,2829.083,1,6,0.100,16889.000,0.200,9441.000,0.300,1218.000,0.500,218.000,1.000,133.000,5.000,0
"07/09/06","02:10:42","AMMA06",27504.000,"cc",28315.586,6.00,2831.559,1,6,0.100,16601.000,0.200,9436.000,0.300,1180.000,0.500,190.000,1.000,97.000,5.000,0
"07/09/06","02:10:48","AMMA06",27245.000,"cc",28314.410,6.00,2831.441,1,6,0.100,16372.000,0.200,9413.000,0.300,1157.000,0.500,192.000,1.000,111.000,5.000,0
"07/09/06","02:10:54","AMMA06",27306.000,"cc",28296.746,6.00,2829.675,1,6,0.100,16586.000,0.200,9254.000,0.300,1164.000,0.500,184.000,1.000,118.000,5.000,0
"07/09/06","02:11:00","AMMA06",27147.000,"cc",28367.789,6.00,2836.779,1,6,0.100,16463.000,0.200,9236.000,0.300,1155.000,0.500,186.000,1.000,107.000,5.000,0
"07/09/06","02:11:06","AMMA06",27252.000,"cc",28338.969,6.00,2833.897,1,6,0.100,16343.000,0.200,9564.000,0.300,1063.000,0.500,176.000,1.000,106.000,5.000,0
"07/09/06","02:11:12","AMMA06",27196.000,"cc",28327.910,6.00,2832.791,1,6,0.100,16251.000,0.200,9486.000,0.300,1180.000,0.500,182.000,1.000,97.000,5.000,0
"07/09/06","02:11:18","AMMA06",27025.000,"cc",28304.691,6.00,2830.469,1,6,0.100,16208.000,0.200,9429.000,0.300,1125.000,0.500,167.000,1.000,96.000,5.000,0
"07/09/06","02:11:24","AMMA06",27146.000,"cc",28263.471,6.00,2826.347,1,6,0.100,16334.000,0.200,9381.000,0.300,1145.000,0.500,183.000,1.000,103.000,5.000,0
"07/09/06","02:11:30","AMMA06",27122.000,"cc",28329.342,6.00,2832.934,1,6,0.100,16195.000,0.200,9513.000,0.300,1137.000,0.500,186.000,1.000,91.000,5.000,0
"07/09/06","02:11:36","AMMA06",27387.000,"cc",28338.219,6.00,2833.822,1,6,0.100,16453.000,0.200,9476.000,0.300,1162.000,0.500,178.000,1.000,118.000,5.000,0
"07/09/06","02:11:42","AMMA06",27402.000,"cc",28293.432,6.00,2829.343,1,6,0.100,16390.000,0.200,9539.000,0.300,1171.000,0.500,192.000,1.000,110.000,5.000,0
"07/09/06","02:11:48","AMMA06",27464.000,"cc",28364.244,6.00,2836.425,1,6,0.100,16300.000,0.200,9711.000,0.300,1183.000,0.500,176.000,1.000,94.000,5.000,0
"07/09/06","02:11:54","AMMA06",27558.000,"cc",28267.533,6.00,2826.753,1,6,0.100,16398.000,0.200,9730.000,0.300,1176.000,0.500,162.000,1.000,92.000,5.000,0
"07/09/06","02:12:00","AMMA06",27333.000,"cc",28337.107,6.00,2833.711,1,6,0.100,16307.000,0.200,9613.000,0.300,1163.000,0.500,150.000,1.000,100.000,5.000,0
"07/09/06","02:12:06","AMMA06",27416.000,"cc",28317.949,6.00,2831.795,1,6,0.100,16245.000,0.200,9720.000,0.300,1183.000,0.500,168.000,1.000,100.000,5.000,0
"07/09/06","02:12:12","AMMA06",27943.000,"cc",28309.070,6.00,2830.907,1,6,0.100,16579.000,0.200,9880.000,0.300,1191.000,0.500,178.000,1.000,115.000,5.000,0
"07/09/06","02:12:18","AMMA06",27557.000,"cc",28344.223,6.00,2834.422,1,6,0.100,16366.000,0.200,9719.000,0.300,1191.000,0.500,188.000,1.000,93.000,5.000,0
"07/09/06","02:12:24","AMMA06",27751.000,"cc",28315.152,6.00,2831.515,1,6,0.100,16668.000,0.200,9609.000,0.300,1211.000,0.500,170.000,1.000,93.000,5.000,0
"07/09/06","02:12:30","AMMA06",27840.000,"cc",28306.703,6.00,2830.670,1,6,0.100,16485.000,0.200,9783.000,0.300,1206.000,0.500,234.000,1.000,132.000,5.000,0
"07/09/06","02:12:36","AMMA06",27515.000,"cc",28341.943,6.00,2834.195,1,6,0.100,16407.000,0.200,9625.000,0.300,1182.000,0.500,204.000,1.000,97.000,5.000,0
"07/09/06","02:12:42","AMMA06",27877.000,"cc",28324.479,6.00,2832.448,1,6,0.100,16462.000,0.200,9837.000,0.300,1248.000,0.500,211.000,1.000,119.000,5.000,0
"07/09/06","02:12:48","AMMA06",27647.000,"cc",28320.371,6.00,2832.037,1,6,0.100,16466.000,0.200,9613.000,0.300,1251.000,0.500,203.000,1.000,114.000,5.000,0
"07/09/06","02:12:54","AMMA06",28375.000,"cc",28285.387,6.00,2828.539,1,6,0.100,16775.000,0.200,9752.000,0.300,1410.000,0.500,283.000,1.000,155.000,5.000,0
"07/09/06","02:13:00","AMMA06",28445.000,"cc",28330.406,6.00,2833.041,1,6,0.100,16756.000,0.200,10037.000,0.300,1298.000,0.500,229.000,1.000,125.000,5.000,0
"07/09/06","02:13:06","AMMA06",27986.000,"cc",28310.844,6.00,2831.085,1,6,0.100,16561.000,0.200,9804.000,0.300,1278.000,0.500,215.000,1.000,128.000,5.000,0
"07/09/06","02:13:12","AMMA06",28039.000,"cc",28263.824,6.00,2826.383,1,6,0.100,16639.000,0.200,9774.000,0.300,1257.000,0.500,239.000,1.000,130.000,5.000,0
"07/09/06","02:13:18","AMMA06",28157.000,"cc",28336.313,6.00,2833.631,1,6,0.100,16926.000,0.200,9682.000,0.300,1198.000,0.500,240.000,1.000,111.000,5.000,0
"07/09/06","02:13:24","AMMA06",27987.000,"cc",28334.633,6.00,2833.463,1,6,0.100,16678.000,0.200,9647.000,0.300,1282.000,0.500,245.000,1.000,135.000,5.000,0
"07/09/06","02:13:30","AMMA06",28419.000,"cc",28384.957,6.00,2838.496,1,6,0.100,16996.000,0.200,9738.000,0.300,1263.000,0.500,270.000,1.000,152.000,5.000,0
"07/09/06","02:13:36","AMMA06",27726.000,"cc",28315.772,6.00,2831.577,1,6,0.100,16455.000,0.200,9715.000,0.300,1196.000,0.500,219.000,1.000,141.000,5.000,0
"07/09/06","02:13:42","AMMA06",27807.000,"cc",28328.434,6.00,2832.844,1,6,0.100,16655.000,0.200,9605.000,0.300,1212.000,0.500,203.000,1.000,132.000,5.000,0
"07/09/06","02:13:48","AMMA06",28556.000,"cc",28262.830,6.00,2826.283,1,6,0.100,17043.000,0.200,9730.000,0.300,1355.000,0.500,283.000,1.000,145.000,5.000,0
"07/09/06","02:13:54","AMMA06",28563.000,"cc",28271.053,6.00,2827.106,1,6,0.100,16887.000,0.200,9919.000,0.300,1352.000,0.500,266.000,1.000,139.000,5.000,0
"07/09/06","02:14:00","AMMA06",28538.000,"cc",28279.834,6.00,2827.984,1,6,0.100,17166.000,0.200,9670.000,0.300,1284.000,0.500,280.000,1.000,138.000,5.000,0
"07/09/06","02:14:06","AMMA06",28404.000,"cc",28353.191,6.00,2835.319,1,6,0.100,16887.000,0.200,9834.000,0.300,1322.000,0.500,229.000,1.000,132.000,5.000,0
"07/09/06","02:14:12","AMMA06",28109.000,"cc",28327.672,6.00,2832.767,1,6,0.100,16979.000,0.200,9634.000,0.300,1175.000,0.500,191.000,1.000,130.000,5.000,0
"07/09/06","02:14:18","AMMA06",27848.000,"cc",28368.035,6.00,2836.804,1,6,0.100,16682.000,0.200,9747.000,0.300,1148.000,0.500,172.000,1.000,99.000,5.000,0